Tracking 29933 objects as of 3-Dec-2024
HD Live streaming from Space Station
objects crossing your sky now

STARLINK-31526

Track STARLINK-31526 now!
10-day predictions
STARLINK-31526 is classified as:


NORAD ID: 59016
Int'l Code: 2024-036U
Perigee: 453.2 km
Apogee: 455.5 km
Inclination: 53.2 °
Period: 93.5 minutes
Semi major axis: 6825 km
RCS: Unknown
Launch date: February 23, 2024
Source: United States (US)
Launch site: AIR FORCE WESTERN TEST RANGE (AFWTR)
Your satellite tracking list
Your tracking list is empty




NASA's NSSDC Master Catalog

Two Line Element Set (TLE):
1 59016U 24036U   24337.88894938 -.00000952  00000-0 -13809-4 0  9995
2 59016  53.1575  40.0776 0001687 118.1125 242.0051 15.39614975 44949
Source of the keplerian elements: AFSPC